This is the latest recevied weather packets stored in our database for station/object HOWARD. If no packets are shown the sender has not sent any weather packets the latest 10 day(s).
| Time | Temp. | Humidity | Pressure | Rain* | Wind** | Luminosity | Snow |
|---|---|---|---|---|---|---|---|
| 1788107080 | 5° C | 69% | 1015 hPa | 0 mm | - | - | - |
| 1788106480 | 4.44° C | 69% | 1014.8 hPa | 0 mm | - | - | - |
| 1788105880 | 4.44° C | 69% | 1014.7 hPa | 0 mm | - | - | - |
| 1788105280 | 5.56° C | 66% | 1014.7 hPa | 0 mm | - | - | - |
| 1788104729 | 5° C | 62% | 1014.7 hPa | 0 mm | - | - | - |
| 1788104680 | 5° C | 62% | 1014.7 hPa | 0 mm | - | - | - |
| 1788104080 | 4.44° C | 62% | 1014.7 hPa | 0 mm | - | - | - |
| 1788103480 | 4.44° C | 64% | 1014.4 hPa | 0 mm | - | - | - |
| 1788102880 | 3.89° C | 61% | 1014.4 hPa | 0 mm | - | - | - |
| 1788102280 | 3.33° C | 44% | 1014.3 hPa | 0 mm | - | - | - |
| 1788101680 | 3.33° C | 43% | 1014.2 hPa | 0 mm | - | - | - |
| 1788101159 | 2.78° C | 44% | 1014.1 hPa | 0 mm | - | - | - |
| 1788101080 | 2.78° C | 44% | 1014.1 hPa | 0 mm | - | - | - |
| 1788100515 | 2.22° C | 53% | 1014 hPa | 0 mm | - | - | - |
| 1788100480 | 2.22° C | 53% | 1014 hPa | 0 mm | - | - | - |
| 1788099880 | 2.22° C | 61% | 1013.9 hPa | 0 mm | - | - | - |
| 1788099280 | 2.22° C | 59% | 1014.5 hPa | 0 mm | - | - | - |
| 1788098680 | 1.11° C | 70% | 1014.3 hPa | 0 mm | - | - | - |
| 1788098080 | 1.11° C | 74% | 1014.1 hPa | 0 mm | - | - | - |
| 1788097480 | 0.56° C | 75% | 1014 hPa | 0 mm | - | - | - |
| 1788096880 | 0.56° C | 77% | 1013.9 hPa | 0 mm | - | - | - |
| 1788096280 | 0° C | 77% | 1013.8 hPa | 0 mm | - | - | - |
| 1788095680 | 0° C | 76% | 1013.7 hPa | 0 mm | - | - | - |
| 1788095080 | 0° C | 78% | 1013.6 hPa | 0 mm | - | - | - |
| 1788094480 | 0° C | 80% | 1013.5 hPa | 0 mm | - | - | - |
* Rain latest hour (hover to see other rain measurements)
** Current wind speed in m/s (hover to see current wind gust speed)